目前日期文章:201504 (118)

瀏覽方式: 標題列表 簡短摘要
發表時間 文章標題 人氣 留言
2015-04-30 【心得】推薦Sulwhasoo雪花秀:滋陰水乳眼部保養三件組 (1) (0)
2015-04-30 【心得】推薦瑰珀翠:水澤香蕀叢花 室內芳香劑 100mL (10) (0)
2015-04-30 【心得】推薦任選二入:Biotherm碧兒泉 柔膚卸妝乳&機能化妝水 (0) (0)
2015-04-30 【心得】推薦shu uemura植村秀:光燦新肌粹30ml (0) (0)
2015-04-30 只有今天NATURE TREE 海洋元素青春露 (19) (0)
2015-04-30 【心得】推薦Fancy藤蔓擴香氛:薰衣草香氛精油-100ML (0) (0)
2015-04-29 【哪裡買】推薦【mods hair】魅力定型噴霧 微香 180g (10) (0)
2015-04-27 【心得】推薦FOR BELOVED ONE寵愛之名:多勝太DNA緊緻精華霜35ml (1) (0)
2015-04-27 【心得】推薦LANAMI:修護保濕面膜-雙耳掛10盒 (0) (0)
2015-04-27 【心得】推薦Herbox 荷柏園:茉莉綠茶沐浴精 300ml (3) (0)
2015-04-26 【心得】推薦ORIGINS 品木宣言:扭轉乾坤 賦活保濕美肌水Plus+ 50ML (15) (0)
2015-04-26 只有今天【The saem】男士控油化妝水 125 ml (0) (0)
2015-04-26 韓國Kerasys浪漫香水洗髮組(體驗組)(M) (0) (0)
2015-04-26 【心得】推薦Dior 迪奧:雪晶靈潔顏乳110ml (2) (0)
2015-04-26 【心得】買【denille’spicks】奇亞籽膠原美美凍-蔓越莓(10支-盒)哪裡買 (0) (0)
2015-04-26 【心得】推薦Hello Kitty:玫瑰浪漫香氛6件組5擴香+1袋 (1) (0)
2015-04-25 【心得】推薦SK-Ⅱ:超解析光感鑽白修護凝霜UV SPF30 PA+++50g送青春露10ml (0) (0)
2015-04-25 【心得】推薦Avene:舒護活泉水300ml3入組M (1) (0)
2015-04-25 【心得】推薦KOSE高絲:雪肌精晶透潤白潔顏皂100g+雪肌精淨透潔顏油250ml (0) (0)
2015-04-25 【心得】推薦KANEBO 佳麗寶:Dew潤活精純露-滋潤型超越正貨容量組40MLX4入 (0) (0)
2015-04-25 【心得】推薦VITAL SPA:松露根碩養髮液100ml (11) (0)
2015-04-24 只有今天CLINIQUE 倩碧 三步驟洗面皂(加強型)(100g) (1) (0)
2015-04-24 只有今天【BIOTHERM 碧兒泉】海洋勁量全效沐浴膠(40ml-5) (1) (0)
2015-04-23 【心得】推薦AVEDA:深層清潔面膜125ml (18) (0)
2015-04-23 【心得】推薦Caprina肯拿士山羊奶:新鮮山羊奶滋潤身體乳2入-橄欖油小麥蛋白香味 (1) (0)
2015-04-23 【心得】推薦蕾莉歐:檸檬葡萄柚潔膚乳500ml身體手足護理系列 (8) (0)
2015-04-23 【心得】推薦Thai Scent泰香:傳遞訊息草本手工皂-Peace和平55g+麻布袋 (5) (0)
2015-04-23 【心得】推薦理膚寶水:身體滋潤沐浴乳400ml (29) (0)
2015-04-22 【心得】推薦LANCOME蘭蔻:絕對完美極緻再生晚霜15ml (3) (0)
2015-04-22 【心得】推薦SHISEIDO 資生堂:百優精純乳霜18ml 2入旅行袋組 (4) (0)
2015-04-22 【心得】推薦SKII:青春精華露30ml (35) (0)
2015-04-22 【心得】推薦MIZON:火山泥漿搓搓導出泥膜60g (5) (0)
2015-04-22 【心得】推薦ESTEE LAUDER雅詩蘭黛:時光肌密瞬間青春晚霜 15ml 5瓶 (1) (0)
2015-04-21 【心得】推薦CONI:無限肌緻玻尿酸保濕緊緻眼膜+完美奇蹟全效海洋膠原面膜 + 經典奢華黑鑽眼霜超值組合 (68) (0)
2015-04-21 【心得】推薦KLORANE bebe蔻蘿蘭寶寶:新生兒保濕滋養霜40ml (1) (0)
2015-04-21 【心得】推薦MasKingdom 膜殿:漢方鑑美薏仁珍珠粉極效美白面膜-美白 (8) (0)
2015-04-21 【心得】推薦Whoo 后:津率紅顏重生美肌4件組 (11) (0)
2015-04-21 【心得】推薦SKII:晶緻活膚乳液10g -15 (8) (0)
2015-04-20 只有今天【CONI】DNA肌鑰煥白賦活露380ml-2+肌鑰煥白賦活露30ml-1 (0) (0)
2015-04-20 只有今天【OXY 歐可喜】玩美潔淨洗面乳 200ml(全新包裝) (1) (0)
2015-04-19 只有今天【北海道-天然堂】馬油Q10三件組合(皂+化妝水+Q10面霜) (0) (0)
2015-04-19 只有今天BODY TEMPLE 安息香純芳療精油10ml (0) (0)
2015-04-19 只有今天R.rouge愛美肌 高效緊緻晶亮明眸保濕精華筆3入15mlx3 (1) (0)
2015-04-19 只有今天樂敦 ROHTO 肌研 極潤滋潤化妝水170ml 補充包 (6) (0)
2015-04-19 只有今天【Fcuk 】Summer 男性淡香水(100ml ) (2) (0)
2015-04-19 【體驗】到森森購物買MadonnaNG花情睡衣褲4套破盤組拯救睡眠哪裡買 (0) (0)
2015-04-19 【體驗】到森森購物買【天使霓裳】甜美嬌嫩甜蜜滿分輕柔連身睡衣粉拯救睡眠0哪裡買 (0) (0)
2015-04-16 【心得】【KilaDoll】櫻花微晶嫩白潔面露(120ml) (0) (0)
2015-04-15 不用去超市!$599買超天然2倍濃縮小蘇打植物抗菌洗衣精5020g x1瓶 + 超酵素奶瓶蔬果洗滌液350g x1瓶只在毛寶購物網 (0) (0)
2015-04-15 【體驗】到森森購物買【天使霓裳】甜蜜情侶款法蘭絨睡袍拯救睡眠_0 (0) (0)
1 23